Hourly Data Report for November 29, 2021

MOUNT FOREST (AUT)
ONTARIO
Current Station Operator: ECCC - MSC

43°59'00.000" N
80°45'00.000" W
414.50 m
6145504
71631
WLS

Download Data

Hourly Data (November 2021)
Hourly Data Report for November 29, 2021
TIME
LST
Temp Definition
°C
Dew Point Definition
°C
Rel Hum Definition
%
Precip. Amount Definition
mm

Wind Dir Definition
10's deg

Wind Spd Definition
km/h
Visibility Definition
km
Stn Press Definition
kPa
Hmdx Definition


Wind Chill Definition


Weather Definition


00:00 -4.6 -5.8 91 0.0 35 9   96.25   -8 LegendNANA
01:00 -7.5 -8.4 94 0.0 30 3   96.27   -9 LegendNANA
02:00 -6.0 -6.6 96 0.0 35 4   96.30   -8 LegendNANA
03:00 -6.9 -7.5 95 0.0 35 5   96.37   -9 LegendNANA
04:00 -8.8 -9.7 93 0.0 6 2   96.40   -10 LegendNANA
05:00 -9.1 -10.0 93 0.0 25 2   96.44   -10 LegendNANA
06:00 -10.2 -11.3 92 0.0   0   96.48     LegendNANA
07:00 -8.9 -9.9 93 0.0 17 2   96.52   -10 LegendNANA
08:00 -8.0 -9.0 93 0.0 0 1   96.54   -9 LegendNANA
09:00 -7.0 -7.9 93 0.0 19 4   96.60   -9 LegendNANA
10:00 -5.6 -6.5 93 0.0 22 5   96.62   -8 LegendNANA
11:00 -4.5 -5.4 93 0.0 19 6   96.59   -7 LegendNANA
12:00 -3.6 -5.1 89 0.0 19 7   96.54   -7 LegendNANA
13:00 -2.5 -3.9 90 0.4 21 8   96.46   -6 LegendNANA
14:00 -1.3 -2.6 91 0.4 22 6   96.43   -4 LegendNANA
15:00 -0.7 -2.1 90 0.0 25 8   96.42   -4 LegendNANA
16:00 -0.9 -2.1 92 0.2 24 8   96.42   -4 LegendNANA
17:00 -1.1 -2.1 93 0.0 26 8   96.43   -4 LegendNANA
18:00 -1.3 -2.2 94 0.0 25 6   96.44   -4 LegendNANA
19:00 -1.5 -2.9 91 0.0 23 7   96.46   -4 LegendNANA
20:00 -1.7 -3.7 86 0.0 21 5   96.41   -4 LegendNANA
21:00 -2.1 -4.7 83 0.0 20 7   96.42   -5 LegendNANA
22:00 -2.4 -5.3 81 0.0 20 7   96.41   -5 LegendNANA
23:00 -2.3 -5.2 81 0.0 20 10   96.39   -6 LegendNANA

Notes on Data Quality.

Legend

  • E = Estimated
  • M = Missing
  • NA = Not Available*
  • [empty] = Indicates an unobserved value
Date modified: